Weather reports worldwide

Advertisment
Culdrose, United Kingdom (3809): temperature & dewpoint: 10.01.2018 19:00:00 - 16.01.2018 19:00:00 (GMT)Culdrose, United Kingdom (3809): wind speed & gusts: 10.01.2018 19:00:00 - 16.01.2018 19:00:00 (GMT)Culdrose, United Kingdom (3809): wind direction: 10.01.2018 19:00:00 - 16.01.2018 19:00:00 (GMT)Culdrose, United Kingdom (3809): reduced air pressure: 10.01.2018 19:00:00 - 16.01.2018 19:00:00 (GMT)Culdrose, United Kingdom (3809): visibility: 10.01.2018 19:00:00 - 16.01.2018 19:00:00 (GMT)Culdrose, United Kingdom (3809): precipitation: 10.01.2018 19:00:00 - 16.01.2018 19:00:00 (GMT)
Date & Time tt [°C] td [°C] ff [km/h] ff [kn] fx [km/h] fx [kn] dd ppp [hPa] vv [km] rr [mm]
16.01.2018 19:00:00 5,0 2,1 41 22 94 51 W 1002,2 10 -
16.01.2018 18:00:00 5,7 3,3 35 19 76 41 WNW 1002,0 6 -
16.01.2018 17:00:00 5,9 4,3 44 24 80 43 W 1002,0 10 -
16.01.2018 16:00:00 6,1 4,0 37 20 87 47 W 1002,2 10 -
16.01.2018 15:00:00 6,8 4,5 44 24 100 54 W 1002,2 10 0,8
16.01.2018 14:00:00 7,1 5,1 34 18 91 49 W 1002,3 3,5 1,4
16.01.2018 13:00:00 8,1 3,9 44 24 80 43 W 1002,8 4,5 0,0
16.01.2018 12:00:00 8,2 4,5 39 21 80 43 W 1003,9 10 0,0
16.01.2018 11:00:00 6,9 4,8 26 14 94 51 W 1004,2 10 0,8
16.01.2018 10:00:00 6,8 4,5 29 16 65 35 W 1004,1 10 0,2
16.01.2018 09:00:00 7,1 5,2 34 18 80 43 W 1003,5 10 0,4
16.01.2018 08:00:00 7,3 5,1 31 17 76 41 WNW 1002,8 7 0,4
16.01.2018 07:00:00 7,3 5,1 34 18 80 43 W 1002,6 10 0,0
16.01.2018 06:00:00 7,9 5,3 34 18 68 37 W 1002,1 10 0,0
16.01.2018 05:00:00 8,3 5,1 41 22 72 39 W 1001,9 10 0,0
16.01.2018 04:00:00 8,3 5,5 39 21 76 41 W 1001,4 10 0,2
16.01.2018 03:00:00 9,0 6,2 31 17 70 38 W 1001,2 6 0,0
16.01.2018 02:00:00 9,8 7,2 41 22 72 39 W 1000,9 10 0,0
16.01.2018 01:00:00 9,8 7,4 41 22 70 38 W 1001,1 8 0,0
16.01.2018 00:00:00 9,7 7,4 34 18 65 35 W 1001,2 10 0,0
15.01.2018 23:00:00 9,5 6,7 37 20 67 36 W 1001,6 10 0,2
15.01.2018 22:00:00 8,9 7,5 39 21 76 41 W 1001,7 10 0,0
15.01.2018 21:00:00 9,8 6,6 41 22 74 40 W 1001,6 10 0,0
15.01.2018 20:00:00 9,7 7,1 31 17 68 37 W 1002,0 10 0,2
15.01.2018 19:00:00 9,6 7,5 31 17 59 32 W 1001,4 10 0,0
15.01.2018 18:00:00 9,7 7,2 31 17 61 33 W 1001,5 10 0,0
15.01.2018 17:00:00 9,3 7,7 31 17 54 29 W 1001,9 8 0,0
15.01.2018 16:00:00 9,6 7,5 28 15 65 35 W 1001,4 10 0,0
15.01.2018 15:00:00 9,9 7,6 29 16 65 35 W 1001,4 10 0,0
15.01.2018 14:00:00 10,3 7,7 35 19 67 36 W 1001,4 10 0,0
15.01.2018 13:00:00 10,6 8,2 34 18 67 36 W 1001,4 10 0,0
15.01.2018 12:00:00 10,6 8,7 34 18 65 35 W 1001,5 10 0,0
15.01.2018 11:00:00 10,7 9,3 44 24 65 35 W 1001,6 10 0,0
15.01.2018 10:00:00 10,5 10,1 35 19 67 36 W 1001,8 12 0,6
15.01.2018 09:00:00 10,4 10,2 26 14 57 31 W 1001,7 1,0 0,6
15.01.2018 08:00:00 10,3 10,1 28 15 59 32 WSW 1001,9 1,5 1,2
15.01.2018 07:00:00 10,2 10,0 26 14 52 28 WSW 1002,9 0,4 0,4
15.01.2018 06:00:00 10,2 10,0 24 13 65 35 WSW 1004,3 1,5 0,2
15.01.2018 05:00:00 10,3 10,1 34 18 76 41 WSW 1005,1 1,0 0,6
15.01.2018 04:00:00 9,9 9,6 48 26 83 45 SW 1005,9 1,5 1,4
15.01.2018 03:00:00 9,5 9,2 46 25 78 42 SW 1007,2 1,5 0,8
15.01.2018 02:00:00 8,9 8,6 46 25 78 42 SSW 1009,1 2,0 1,0
15.01.2018 01:00:00 9,1 8,1 52 28 70 38 SW 1010,9 14 0,0
15.01.2018 00:00:00 9,0 8,1 42 23 57 31 SSW 1012,6 11 0,2
14.01.2018 23:00:00 9,4 7,9 42 23 52 28 SW 1013,9 22 0,0
14.01.2018 22:00:00 9,1 7,7 34 18 48 26 SW 1014,6 29 0,0
14.01.2018 21:00:00 9,3 8,0 34 18 46 25 SW 1015,0 29 0,0
14.01.2018 20:00:00 9,3 7,5 31 17 - - SSW 1015,7 27 0,0
14.01.2018 19:00:00 8,9 6,6 26 14 - - SSW 1016,1 35 0,0
14.01.2018 18:00:00 8,3 5,8 21 11 - - SSW 1016,2 30 0,0
14.01.2018 17:00:00 8,3 6,6 21 11 - - S 1016,4 14 0,0
14.01.2018 16:00:00 7,8 6,0 15 8 - - S 1016,5 12 0,0
14.01.2018 15:00:00 8,2 6,0 15 8 - - SSE 1016,9 15 0,0
14.01.2018 14:00:00 8,6 5,9 15 8 - - SSE 1017,3 17 0,0
14.01.2018 13:00:00 8,6 5,9 16 9 - - SSE 1017,5 16 0,0
14.01.2018 12:00:00 8,6 5,8 21 11 - - SE 1017,7 17 0,0
14.01.2018 11:00:00 8,5 6,1 18 10 - - SE 1017,9 14 0,0
14.01.2018 10:00:00 7,5 5,3 15 8 - - SE 1018,1 13 0,0
14.01.2018 09:00:00 7,3 5,5 15 8 - - ESE 1017,7 15 0,0
14.01.2018 08:00:00 6,9 5,8 13 7 - - ESE 1017,0 14 0,0
14.01.2018 07:00:00 6,7 6,1 16 9 - - E 1016,6 10 0,0
14.01.2018 06:00:00 6,7 6,3 11 6 - - E 1016,0 5 0,0
14.01.2018 05:00:00 6,9 6,6 9 5 - - E 1015,9 3,9 0,2
14.01.2018 04:00:00 7,0 6,5 8 4 - - E 1015,7 3,8 0,2
14.01.2018 03:00:00 7,2 6,5 13 7 - - ESE 1015,5 14 0,0
14.01.2018 02:00:00 7,1 6,6 15 8 - - ESE 1015,1 14 0,0
14.01.2018 01:00:00 7,0 6,4 16 9 - - ESE 1014,9 19 0,0
14.01.2018 00:00:00 7,0 6,5 21 11 - - ESE 1014,8 7 0,0
13.01.2018 23:00:00 6,7 5,9 22 12 - - ESE 1014,5 35 0,0
13.01.2018 22:00:00 6,7 5,8 22 12 - - ESE 1014,4 13 0,2
13.01.2018 21:00:00 6,8 6,3 22 12 - - SE 1014,2 4,1 0,4
13.01.2018 20:00:00 6,9 6,3 22 12 - - ESE 1013,7 5 0,4
13.01.2018 19:00:00 6,7 6,2 29 16 52 28 ESE 1013,2 4,5 1,4
13.01.2018 18:00:00 7,0 6,4 39 21 52 28 ESE 1012,6 5 0,6
13.01.2018 17:00:00 7,8 7,4 21 11 - - E 1012,4 6 0,4
13.01.2018 16:00:00 8,0 7,6 13 7 - - ESE 1012,1 3,5 0,8
13.01.2018 15:00:00 8,2 7,8 15 8 - - SE 1011,9 4,0 4,4
13.01.2018 14:00:00 7,9 7,2 18 10 50 27 S 1011,7 3,0 2,6
13.01.2018 13:00:00 8,7 8,2 26 14 52 28 SSE 1011,7 3,5 2,0
13.01.2018 12:00:00 8,7 8,2 26 14 50 27 SSE 1012,0 3,5 2,4
13.01.2018 11:00:00 8,5 7,9 26 14 65 35 S 1012,2 4,0 0,8
13.01.2018 10:00:00 8,7 8,1 44 24 65 35 SSE 1011,5 5 2,0
13.01.2018 09:00:00 8,6 8,0 48 26 67 36 SE 1011,3 5 3,4
13.01.2018 08:00:00 8,3 7,8 42 23 65 35 SE 1011,4 3,9 3,6
13.01.2018 07:00:00 8,2 7,6 42 23 65 35 SE 1011,3 7 2,4
13.01.2018 06:00:00 7,9 7,4 42 23 57 31 SE 1011,6 6 2,8
13.01.2018 05:00:00 7,7 7,1 42 23 59 32 SE 1012,2 5 2,4
13.01.2018 04:00:00 7,8 7,1 39 21 61 33 SSE 1012,8 4,4 0,8
13.01.2018 03:00:00 7,9 6,6 42 23 65 35 SE 1013,4 12 0,0
13.01.2018 02:00:00 8,0 6,5 44 24 61 33 SE 1014,4 16 0,0
13.01.2018 01:00:00 7,9 6,4 41 22 59 32 SE 1015,2 15 0,0
13.01.2018 00:00:00 8,0 6,4 46 25 61 33 SE 1015,7 16 0,0
12.01.2018 23:00:00 8,2 6,5 41 22 57 31 SSE 1016,4 15 0,0
12.01.2018 22:00:00 8,1 6,7 41 22 59 32 SE 1017,1 13 0,0
12.01.2018 21:00:00 8,4 7,1 41 22 55 30 SE 1017,4 11 0,0
12.01.2018 20:00:00 8,6 7,3 34 18 52 28 SSE 1018,1 12 0,0
12.01.2018 19:00:00 8,6 7,1 34 18 48 26 SSE 1018,6 13 0,0
12.01.2018 18:00:00 8,6 7,2 31 17 - - SSE 1018,7 14 0,0
12.01.2018 17:00:00 8,3 6,9 31 17 - - SE 1019,4 15 0,0
12.01.2018 16:00:00 7,7 5,9 29 16 - - SE 1019,7 17 0,0
12.01.2018 15:00:00 7,5 5,4 24 13 - - SE 1020,3 10 0,0
12.01.2018 14:00:00 7,9 5,6 28 15 - - SE 1021,1 10 0,0
12.01.2018 13:00:00 8,3 5,6 24 13 48 26 SSE 1022,0 10 0,0
12.01.2018 12:00:00 8,5 5,8 21 11 - - SSE 1022,9 10 0,0
12.01.2018 11:00:00 8,5 5,5 18 10 - - SSE 1023,2 10 0,0
12.01.2018 10:00:00 7,9 5,2 15 8 - - SSE 1024,0 10 0,0
12.01.2018 09:00:00 7,1 5,0 11 6 - - SSE 1024,2 10 0,0
12.01.2018 08:00:00 6,2 4,5 13 7 - - SSE 1024,1 10 0,0
12.01.2018 07:00:00 6,4 4,5 11 6 - - SSE 1024,3 20 0,0
12.01.2018 06:00:00 6,1 4,1 13 7 - - SSE 1024,3 18 0,0
12.01.2018 05:00:00 5,1 3,5 13 7 - - SSE 1024,4 10 0,0
12.01.2018 04:00:00 4,5 3,1 16 9 - - SSE 1024,6 10 0,0
12.01.2018 03:00:00 4,5 4,0 11 6 - - SSE 1025,5 10 0,0
12.01.2018 02:00:00 1,8 1,6 11 6 - - SE 1025,8 10 0,0
12.01.2018 01:00:00 0,6 0,0 13 7 - - E 1026,1 12 0,0
12.01.2018 00:00:00 0,6 0,3 11 6 - - E 1026,2 8 0,0
11.01.2018 23:00:00 0,3 -0,1 13 7 - - E 1025,8 10 0,0
11.01.2018 22:00:00 1,1 1,0 13 7 - - ENE 1025,6 10 0,0
11.01.2018 21:00:00 1,9 1,1 13 7 - - ENE 1025,5 10 0,0
11.01.2018 20:00:00 1,2 0,8 9 5 - - NE 1025,5 10 0,0
11.01.2018 19:00:00 1,8 1,5 9 5 - - NE 1025,0 10 0,0
11.01.2018 18:00:00 5,3 4,2 4 2 - - NNE 1024,2 10 0,0
11.01.2018 17:00:00 4,5 3,3 9 5 - - NE 1023,5 10 0,0
11.01.2018 16:00:00 6,6 5,0 11 6 - - NNE 1023,0 10 0,0
11.01.2018 15:00:00 8,2 5,2 15 8 - - N 1023,0 10 0,0
11.01.2018 14:00:00 9,1 4,3 13 7 - - NNW 1022,3 10 0,0
11.01.2018 13:00:00 9,2 5,1 9 5 - - NE 1021,3 10 0,0
11.01.2018 12:00:00 8,8 5,4 11 6 - - NE 1020,6 25 0,0
11.01.2018 11:00:00 7,2 4,7 15 8 - - NNE 1020,4 10 0,0
11.01.2018 10:00:00 6,2 4,7 18 10 - - NNE 1019,4 10 0,0
11.01.2018 09:00:00 4,0 2,5 16 9 - - NNE 1018,4 10 0,0
11.01.2018 08:00:00 3,8 2,6 11 6 - - NNE 1017,1 20 0,0
11.01.2018 07:00:00 3,7 2,9 15 8 - - NE 1015,0 10 0,0
11.01.2018 06:00:00 4,0 3,1 11 6 - - NE 1013,5 20 0,0
11.01.2018 05:00:00 5,9 4,5 18 10 - - NE 1012,2 10 0,0
11.01.2018 04:00:00 6,6 5,3 24 13 - - NE 1010,7 10 0,0
11.01.2018 03:00:00 7,7 6,8 18 10 48 26 NE 1009,1 10 0,0
11.01.2018 02:00:00 8,7 7,6 31 17 50 27 ENE 1007,0 10 -
11.01.2018 01:00:00 9,0 7,4 29 16 - - E 1005,9 23 0,0
11.01.2018 00:00:00 9,2 7,7 22 12 - - E 1004,8 10 0,0
10.01.2018 23:00:00 9,1 7,4 26 14 - - E 1003,7 10 0,0
10.01.2018 22:00:00 9,2 7,3 24 13 46 25 ESE 1003,2 10 0,0
10.01.2018 21:00:00 9,3 7,4 26 14 46 25 ESE 1002,5 10 0,0
10.01.2018 20:00:00 9,4 7,6 26 14 - - ESE 1002,2 10 0,0
10.01.2018 19:00:00 9,2 7,1 28 15 46 25 ESE 1002,2 10 0,0

tt = temperature
td = dewpoint
ff = wind speed
fx = gusts
dd = wind direction
ppp = reduced air pressure
vv = visibility
rr = precipitation

Next stations